Nome Airport
PAOM : rendu visible

Aérodrome :











RETROUVEZ-NOUS SUR...

 
LOGIN :

S'inscrire | Disclaimer

   EN    FR    IT 

 









Légende :    VFR   VFR Marginal   IFR   IFR Intensif   IFR Très Intensif
Visi : 
Plafond : 
>= 8 km
>= 3000ft
5 à 8 km
1000 à 3000 ft
1500m à 5 km
500 à 1000 ft
800 à 1500m
200 à 500 ft
< 800m
< 200 ft
Symboles :   Orages  Brouillard  Fortes neiges  Fortes précipitations  Vent > 20 kt






- Altitude de l'aérodrome : 37 ft
- Code IATA : OME


PAOM - Nome

DERNIER METAR :
  • 120953Z AUTO 36010KT 10SM CLR 13/08 A2976 RMK AO2 SLP077 T01330078 TSNO

METARs EXPIRÉS :
  • 120853Z AUTO 33005KT 10SM CLR 14/09 A2976 RMK AO2 SLP077 T01390089 402170072 53008 TSNO
  • 120753Z AUTO 00000KT 10SM CLR 16/09 A2975 RMK AO2 SLP074 T01610094 TSNO

TAF PAOM
Valide du 12 à 06h jusqu'au 13 à 06h UTC


120520Z 1206/1306 20009KT P6SM SKC
FIR PAZA / Amérique du Nord



MET'MAP, la Météo Aéronautique d'un coup d'oeil ! - Copyright ORBIFLY Décembre 2007 - Disclaimer

ORBIFLY MET'MAP TEAM :

Programmation & Développement : Alexandra Zaïnal
Sur une idée originale de : Baudouin d'Aumeries
Assistance à la programmation : Marc-Olivier Méhu
Soutien technique & logistique : Manuel Goepfert

Contact : metmap@orbifly.com




SOURCES & CREDITS :

   NOAA       Earth
Advisory